Weather History for KFSE - December, 2011

Change the Weather History Date:

Thursday, December 29, 2011

  Actual Average Record
Temperature  
Mean Temperature 19 °F -  
Max Temperature 28 °F 15 °F 39 °F (1999)
Min Temperature 10 °F -3 °F -28 °F (1988)
Degree Days  
Heating Degree Days 46    
Moisture  
Dew Point 18 °F    
Average Humidity 91    
Maximum Humidity 100    
Minimum Humidity 85    
Precipitation  
Precipitation 0.00 in - - ()
Sea Level Pressure  
Sea Level Pressure 29.57 in    
Wind  
Wind Speed 1 mph (North)    
Max Wind Speed 15 mph    
Max Gust Speed -    
Visibility 7 miles    
Events Fog , Snow    
Averages and records for this station are not official NWS values.
T = Trace of Precipitation, MM = Missing Value Source: NWS Daily Summary

Daily Weather History Graph

Daily Weather History Graph

Search for Another Location

Airport or City:

Trip Planner

Search our weather history database for the weather conditions in past years. The results will help you decide how hot, cold, wet, or windy it might be!

Date:

Astronomy

Dec. 29, 2011 Rise Set
Actual Time 8:11 AM CST 4:39 PM CST
Civil Twilight 7:35 AM CST 5:15 PM CST
Nautical Twilight 6:55 AM CST 5:54 PM CST
Astronomical Twilight 6:18 AM CST 6:31 PM CST
Moon 10:42 AM CST (12/29) 10:42 PM CST (12/29)
Length of Visible Light 9h 40m
Length of Day
8h 28m
Waxing Crescent, 27% of the Moon is Illuminated
Dec 29
Waxing Crescent
Jan 1
First Quarter
Jan 9
Full
Jan 16
Last Quarter
Jan 23
New

Hourly Weather History & Observations

Time (CST) Temp. Windchill Dew Point Humidity Pressure Visibility Wind Dir Wind Speed Gust Speed Precip Events Conditions
12:15 AM 28.4 °F - 26.6 °F 93% 29.47 in 4.0 mi Calm Calm - N/A   Overcast
12:35 AM 28.4 °F - 26.6 °F 93% 29.47 in 2.0 mi Calm Calm - N/A Snow Light Snow
12:55 AM 28.4 °F - 24.8 °F 86% 29.47 in 5.0 mi Calm Calm - N/A   Overcast
1:15 AM 28.4 °F 21.2 °F 24.8 °F 86% 29.48 in 7.0 mi North 6.9 mph - N/A   Overcast
1:35 AM 26.6 °F - 24.8 °F 93% 29.48 in 5.0 mi Calm Calm - N/A Snow Light Snow
1:55 AM 26.6 °F - 26.6 °F 100% 29.48 in 5.0 mi Calm Calm - N/A Snow Light Snow
2:15 AM 26.6 °F 16.8 °F 26.6 °F 100% 29.49 in 5.0 mi North 10.4 mph - N/A   Overcast
2:35 AM 26.6 °F 14.7 °F 24.8 °F 93% 29.50 in 7.0 mi North 15.0 mph - N/A   Overcast
3:15 AM 24.8 °F - 23.0 °F 93% 29.53 in 7.0 mi Calm Calm - N/A   Overcast
3:35 AM 24.8 °F - 21.2 °F 86% 29.54 in 7.0 mi Calm Calm - N/A   Overcast
3:55 AM 21.2 °F - 19.4 °F 93% 29.54 in 7.0 mi Calm Calm - N/A   Mostly Cloudy
4:15 AM 21.2 °F - 21.2 °F 100% 29.55 in 7.0 mi Calm Calm - N/A   Overcast
4:35 AM 21.2 °F - 21.2 °F 100% 29.56 in 7.0 mi Calm Calm - N/A   Overcast
5:15 AM 19.4 °F - 17.6 °F 93% 29.57 in 7.0 mi Calm Calm - N/A   Scattered Clouds
5:35 AM 19.4 °F - 17.6 °F 93% 29.58 in 5.0 mi Calm Calm - N/A   Scattered Clouds
6:15 AM 15.8 °F - 14.0 °F 93% 29.59 in 5.0 mi Calm Calm - N/A   Clear
6:56 AM 12.2 °F - 8.6 °F 85% 29.59 in 10.0 mi Calm Calm - N/A   Clear
7:15 AM 10.4 °F - 8.6 °F 92% 29.58 in 10.0 mi Calm Calm - N/A   Mostly Cloudy
7:35 AM 12.2 °F - 12.2 °F 100% 29.58 in 1.5 mi Calm Calm - N/A   Overcast
7:56 AM 14.0 °F - 12.2 °F 93% 29.59 in 0.8 mi Calm Calm - N/A   Overcast
8:35 AM 15.8 °F - 14.0 °F 93% 29.60 in 0.2 mi Calm Calm - N/A Fog Light Freezing Fog
8:56 AM 15.8 °F - 14.0 °F 93% 29.61 in 0.2 mi Calm Calm - N/A Fog Light Freezing Fog
9:15 AM 17.6 °F - 15.8 °F 93% 29.61 in 0.2 mi Calm Calm - N/A Fog Light Freezing Fog
9:36 AM 17.6 °F - 15.8 °F 93% 29.62 in 0.2 mi Calm Calm - N/A Fog Light Freezing Fog
9:55 AM 17.6 °F - 15.8 °F 93% 29.61 in 0.8 mi Calm Calm - N/A   Overcast
10:15 AM 17.6 °F - 15.8 °F 93% 29.62 in 1.2 mi Calm Calm - N/A   Overcast
10:35 AM 19.4 °F - 17.6 °F 93% 29.62 in 3.0 mi Calm Calm - N/A   Overcast
11:15 AM 19.4 °F - 17.6 °F 93% 29.60 in 5.0 mi Calm Calm - N/A   Overcast
11:35 AM 21.2 °F - 19.4 °F 93% 29.60 in 7.0 mi Calm Calm - N/A   Overcast
11:55 AM 23.0 °F - 21.2 °F 93% 29.59 in 10.0 mi Calm Calm - N/A   Mostly Cloudy
12:15 PM 24.8 °F - 21.2 °F 86% 29.59 in 10.0 mi Calm Calm - N/A   Scattered Clouds
12:35 PM 24.8 °F - 21.2 °F 86% 29.58 in 10.0 mi Calm Calm - N/A   Scattered Clouds
12:55 PM 26.6 °F - 23.0 °F 86% 29.57 in 10.0 mi Calm Calm - N/A   Mostly Cloudy
1:15 PM 26.6 °F - 23.0 °F 86% 29.57 in 10.0 mi Calm Calm - N/A   Scattered Clouds
1:35 PM 26.6 °F - 23.0 °F 86% 29.57 in 10.0 mi Calm Calm - N/A   Clear
1:55 PM 24.8 °F - 21.2 °F 86% 29.57 in 10.0 mi Calm Calm - N/A   Scattered Clouds
2:15 PM 24.8 °F - 21.2 °F 86% 29.57 in 10.0 mi Calm Calm - N/A   Clear
2:55 PM 24.8 °F - 21.2 °F 86% 29.57 in 10.0 mi Calm Calm - N/A   Clear
3:15 PM 24.8 °F - 21.2 °F 86% 29.57 in 10.0 mi Calm Calm - N/A   Clear
3:36 PM 24.8 °F - 21.2 °F 86% 29.57 in 10.0 mi Calm Calm - N/A   Clear
3:55 PM 21.2 °F - 19.4 °F 93% 29.59 in 10.0 mi Calm Calm - N/A   Clear
4:15 PM 21.2 °F - 17.6 °F 86% 29.58 in 10.0 mi Calm Calm - N/A   Clear
4:36 PM 21.2 °F - 17.6 °F 86% 29.59 in 10.0 mi Calm Calm - N/A   Clear
4:55 PM 19.4 °F - 17.6 °F 93% 29.60 in 10.0 mi Calm Calm - N/A   Clear
5:15 PM 19.4 °F - 15.8 °F 86% 29.60 in 10.0 mi Calm Calm - N/A   Clear
5:34 PM 17.6 °F - 15.8 °F 93% 29.59 in 10.0 mi Calm Calm - N/A   Clear
5:55 PM 17.6 °F - 15.8 °F 93% 29.59 in 10.0 mi Calm Calm - N/A   Clear
6:15 PM 17.6 °F - 15.8 °F 93% 29.58 in 10.0 mi Calm Calm - N/A   Clear
6:35 PM 17.6 °F - 15.8 °F 93% 29.58 in 10.0 mi Calm Calm - N/A   Clear
6:55 PM 17.6 °F - 15.8 °F 93% 29.58 in 10.0 mi Calm Calm - N/A   Clear
7:16 PM 17.6 °F - 15.8 °F 93% 29.58 in 10.0 mi Calm Calm - N/A   Clear
7:35 PM 15.8 °F - 12.2 °F 86% 29.58 in 10.0 mi Calm Calm - N/A   Clear
7:55 PM 15.8 °F - 12.2 °F 86% 29.58 in 10.0 mi Calm Calm - N/A   Clear
8:35 PM 15.8 °F - 12.2 °F 86% 29.58 in 10.0 mi Calm Calm - N/A   Clear
8:55 PM 15.8 °F - 14.0 °F 93% 29.58 in 10.0 mi Calm Calm - N/A   Clear
9:15 PM 17.6 °F - 14.0 °F 86% 29.58 in 10.0 mi Calm Calm - N/A   Clear
9:36 PM 17.6 °F - 15.8 °F 93% 29.58 in 10.0 mi Calm Calm - N/A   Clear
9:55 PM 19.4 °F - 17.6 °F 93% 29.57 in 10.0 mi Calm Calm - N/A   Scattered Clouds
10:15 PM 19.4 °F 9.5 °F 17.6 °F 93% 29.57 in 10.0 mi ESE 8.1 mph - N/A   Scattered Clouds
10:35 PM 21.2 °F 11.7 °F 19.4 °F 93% 29.57 in 10.0 mi ESE 8.1 mph - N/A   Scattered Clouds
10:55 PM 21.2 °F 12.6 °F 19.4 °F 93% 29.58 in 10.0 mi ESE 6.9 mph - N/A   Scattered Clouds
11:14 PM 21.2 °F 11.7 °F 19.4 °F 93% 29.58 in 10.0 mi ESE 8.1 mph - N/A   Clear
11:35 PM 21.2 °F 12.6 °F 19.4 °F 93% 29.57 in 10.0 mi ESE 6.9 mph - N/A   Scattered Clouds
11:55 PM 21.2 °F - 19.4 °F 93% 29.57 in 10.0 mi Calm Calm - N/A   Clear